,,Stat5,,Stat1,,Stat2,,Stat3,,Stat4,,Wind1,,Wind1,
time,status,PA1M_AVG,status,PR1M_SUM,status,RH1M_AVG,status,SR1M_AVG,status,TA1M_AVG,status,W1dAve1m,status,W1sAve1m,
2001-03-19, 00:00:00,VALID,918.181,VALID,0,VALID,97.7228,VALID,-0.0679233,VALID,18.7121,VALID,169,VALID,0,
2001-03-19, 00:01:00,VALID,918.189,VALID,0,VALID,97.3413,VALID,-0.0509425,VALID,18.6184,VALID,169,VALID,0,
2001-03-19, 00:02:00,VALID,918.175,VALID,0,VALID,97.0438,VALID,-0.0339617,VALID,18.5248,VALID,169,VALID,0.129434,
2001-03-19, 00:03:00,VALID,918.174,VALID,0,VALID,97.2752,VALID,-0.0169808,VALID,18.4766,VALID,160,VALID,0.535156,
2001-03-19, 00:04:00,VALID,918.169,VALID,0,VALID,97.588,VALID,-0.0509425,VALID,18.4934,VALID,160,VALID,0.507813,
2001-03-19, 00:05:01,VALID,918.176,VALID,0,VALID,97.7915,VALID,-0.0339617,VALID,18.4796,VALID,160,VALID,0.295025,
2001-03-19, 00:06:00,VALID,918.177,VALID,0,VALID,97.8932,VALID,-0.0509425,VALID,18.4927,VALID,160,VALID,0.0295608,
2001-03-19, 00:07:00,VALID,918.166,VALID,0,VALID,97.7419,VALID,-0.0169808,VALID,18.4632,VALID,160,VALID,0.0010016,
2001-03-19, 00:08:00,VALID,918.172,VALID,0,VALID,97.5003,VALID,-0.0339617,VALID,18.4085,VALID,160,VALID,0,
2001-03-19, 00:09:00,VALID,918.17,VALID,0,VALID,96.3202,VALID,0,VALID,18.257,VALID,160,VALID,0,
2001-03-19, 00:10:00,VALID,918.17,VALID,0,VALID,95.8383,VALID,-0.0509425,VALID,18.1154,VALID,160,VALID,0.135691,
2001-03-19, 00:11:00,VALID,918.177,VALID,0,VALID,96.5517,VALID,-0.0339617,VALID,18.0893,VALID,160,VALID,0.0215372,
2001-03-19, 00:12:00,VALID,918.189,VALID,0,VALID,96.956,VALID,-0.0509425,VALID,18.0799,VALID,160,VALID,0,
2001-03-19, 00:13:00,VALID,918.181,VALID,0,VALID,97.2625,VALID,-0.0339617,VALID,18.0568,VALID,160,VALID,0,
2001-03-19, 00:14:00,VALID,918.192,VALID,0,VALID,97.7419,VALID,0.0339617,VALID,18.0974,VALID,160,VALID,0,
2001-03-19, 00:15:00,VALID,918.203,VALID,0,VALID,98.2467,VALID,0.0509425,VALID,18.2333,VALID,160,VALID,0,
2001-03-19, 00:16:00,VALID,918.196,VALID,0,VALID,98.4934,VALID,0.0509425,VALID,18.346,VALID,160,VALID,0,
2001-03-19, 00:17:00,VALID,918.212,VALID,0,VALID,98.6524,VALID,0.0509425,VALID,18.4367,VALID,160,VALID,0,
2001-03-19, 00:18:00,VALID,918.206,VALID,0,VALID,98.6435,VALID,0.0509425,VALID,18.4787,VALID,160,VALID,0,
2001-03-19, 00:19:00,VALID,918.21,VALID,0,VALID,98.6078,VALID,0.0339617,VALID,18.4823,VALID,160,VALID,0,
2001-03-19, 00:20:01,VALID,918.19,VALID,0,VALID,98.5659,VALID,0,VALID,18.4526,VALID,160,VALID,0,
2001-03-19, 00:21:00,VALID,918.174,VALID,0,VALID,98.5964,VALID,0.0169808,VALID,18.4731,VALID,160,VALID,0,
2001-03-19, 00:22:00,VALID,918.154,VALID,0,VALID,98.4133,VALID,0.0679233,VALID,18.4272,VALID,176,VALID,0.00657895,
2001-03-19, 00:23:00,VALID,918.14,VALID,0,VALID,98.487,VALID,0.0509425,VALID,18.3915,VALID,189,VALID,0.476362,
2001-03-19, 00:24:00,VALID,918.121,VALID,0,VALID,98.7236,VALID,0.101885,VALID,18.4461,VALID,193,VALID,0.505609,
2001-03-19, 00:25:00,VALID,918.117,VALID,0,VALID,98.7719,VALID,0.0679233,VALID,18.5082,VALID,193,VALID,0.447316,
2001-03-19, 00:26:00,VALID,918.096,VALID,0,VALID,98.7833,VALID,0.0679233,VALID,18.5469,VALID,196,VALID,0.417739,
2001-03-19, 00:27:01,VALID,918.081,VALID,0,VALID,98.7604,VALID,0.0679233,VALID,18.573,VALID,197,VALID,0.357227,
2001-03-19, 00:28:01,VALID,918.065,VALID,0,VALID,98.6854,VALID,0.0509425,VALID,18.5693,VALID,197,VALID,0.499783,
2001-03-19, 00:29:00,VALID,918.054,VALID,0,VALID,98.6396,VALID,0.0339617,VALID,18.5402,VALID,197,VALID,0.48546,
2001-03-19, 00:30:00,VALID,918.024,VALID,0,VALID,98.763,VALID,0.0509425,VALID,18.5534,VALID,191,VALID,0.515625,
2001-03-19, 00:31:00,VALID,918.024,VALID,0,VALID,98.8113,VALID,0.0509425,VALID,18.6147,VALID,189,VALID,0.502262,
2001-03-19, 00:32:00,VALID,918.012,VALID,0,VALID,98.6524,VALID,0.0849042,VALID,18.5857,VALID,189,VALID,0.336806,
2001-03-19, 00:33:01,VALID,918.02,VALID,0,VALID,98.4591,VALID,0.0679233,VALID,18.505,VALID,184,VALID,0.389569,
2001-03-19, 00:34:00,VALID,918.021,VALID,0,VALID,98.2823,VALID,0.0169808,VALID,18.4143,VALID,178,VALID,0.432075,
2001-03-19, 00:35:01,VALID,918.019,VALID,0,VALID,97.9403,VALID,0.0679233,VALID,18.2727,VALID,178,VALID,0.416324,
2001-03-19, 00:36:01,VALID,918.003,VALID,0,VALID,97.6872,VALID,-0.0339617,VALID,18.1502,VALID,178,VALID,0.338682,
2001-03-19, 00:37:00,VALID,918,VALID,0,VALID,97.4621,VALID,-0.0169808,VALID,18.0476,VALID,178,VALID,0.152439,
2001-03-19, 00:38:00,VALID,917.992,VALID,0,VALID,97.2701,VALID,-0.0679233,VALID,17.9346,VALID,178,VALID,0,
2001-03-19, 00:39:01,VALID,917.973,VALID,0,VALID,97.5003,VALID,-0.0509425,VALID,17.9055,VALID,178,VALID,0,
2001-03-19, 00:40:00,VALID,917.95,VALID,0,VALID,97.8589,VALID,-0.0679233,VALID,17.9251,VALID,178,VALID,0.00105574,
2001-03-19, 00:41:00,VALID,917.924,VALID,0,VALID,98.0458,VALID,-0.0509425,VALID,17.9576,VALID,178,VALID,0.214844,
2001-03-19, 00:42:00,VALID,917.903,VALID,0,VALID,98.2505,VALID,-0.0169808,VALID,17.9834,VALID,178,VALID,0.346217,
2001-03-19, 00:43:01,VALID,917.896,VALID,0,VALID,98.5405,VALID,-0.0849042,VALID,18.0609,VALID,178,VALID,0.370759,
2001-03-19, 00:44:00,VALID,917.872,VALID,0,VALID,98.7185,VALID,-0.0169808,VALID,18.1251,VALID,183,VALID,0.290465,
2001-03-19, 00:45:00,VALID,917.86,VALID,0,VALID,98.6155,VALID,-0.0339617,VALID,18.1673,VALID,184,VALID,0,
2001-03-19, 00:46:01,VALID,917.848,VALID,0,VALID,98.4642,VALID,0,VALID,18.1288,VALID,185,VALID,0.252534,
2001-03-19, 00:47:00,VALID,917.838,VALID,0,VALID,98.4489,VALID,-0.0169808,VALID,18.0965,VALID,195,VALID,0.396835,
2001-03-19, 00:48:00,VALID,917.823,VALID,0,VALID,98.5608,VALID,-0.0169808,VALID,18.1029,VALID,198,VALID,0.111637,
2001-03-19, 00:49:00,VALID,917.82,VALID,0,VALID,98.5315,VALID,-0.0509425,VALID,18.1092,VALID,206,VALID,0.150288,
2001-03-19, 00:50:00,VALID,917.815,VALID,0,VALID,98.4616,VALID,-0.0679233,VALID,18.1029,VALID,211,VALID,0.296453,
2001-03-19, 00:51:00,VALID,917.798,VALID,0,VALID,98.4082,VALID,-0.0509425,VALID,18.0967,VALID,211,VALID,0.425998,
2001-03-19, 00:52:00,VALID,917.79,VALID,0,VALID,98.2493,VALID,-0.0679233,VALID,18.0644,VALID,211,VALID,0.644637,
2001-03-19, 00:53:00,VALID,917.773,VALID,0,VALID,98.1641,VALID,-0.0169808,VALID,18.0388,VALID,215,VALID,0.698396,
2001-03-19, 00:54:01,VALID,917.755,VALID,0,VALID,98.0738,VALID,-0.0679233,VALID,17.9964,VALID,221,VALID,0.61859,
2001-03-19, 00:55:00,VALID,917.756,VALID,0,VALID,97.897,VALID,-0.0339617,VALID,17.9772,VALID,229,VALID,0.697716,
2001-03-19, 00:56:01,VALID,917.736,VALID,0,VALID,97.6007,VALID,-0.0849042,VALID,17.9322,VALID,225,VALID,0.708615,
2001-03-19, 00:57:00,VALID,917.735,VALID,0,VALID,97.3337,VALID,-0.0679233,VALID,17.8575,VALID,224,VALID,0.805921,
2001-03-19, 00:58:00,VALID,917.715,VALID,0,VALID,97.3197,VALID,-0.101885,VALID,17.8324,VALID,235,VALID,0.507612,
2001-03-19, 00:59:00,VALID,917.712,VALID,0,VALID,97.6122,VALID,-0.0849042,VALID,17.8386,VALID,236,VALID,0.569311,
2001-03-19, 01:00:00,VALID,917.7,VALID,0,VALID,97.911,VALID,-0.0679233,VALID,17.8769,VALID,231,VALID,0.778493,
2001-03-19, 01:01:00,VALID,917.68,VALID,0,VALID,97.9364,VALID,-0.0339617,VALID,17.893,VALID,227,VALID,0.85074,
2001-03-19, 01:02:00,VALID,917.673,VALID,0,VALID,98.0979,VALID,-0.0339617,VALID,17.9092,VALID,222,VALID,0.813345,
2001-03-19, 01:03:00,VALID,917.662,VALID,0,VALID,98.2531,VALID,-0.0679233,VALID,17.9382,VALID,218,VALID,0.837674,
2001-03-19, 01:04:00,VALID,917.658,VALID,0,VALID,98.2836,VALID,-0.0679233,VALID,17.9382,VALID,223,VALID,0.786675,
2001-03-19, 01:05:00,VALID,917.641,VALID,0,VALID,98.3929,VALID,-0.0339617,VALID,17.9382,VALID,218,VALID,0.952714,
2001-03-19, 01:06:00,VALID,917.626,VALID,0,VALID,98.4985,VALID,-0.0509425,VALID,17.9712,VALID,214,VALID,0.843544,
2001-03-19, 01:07:00,VALID,917.609,VALID,0,VALID,98.454,VALID,-0.0339617,VALID,17.9574,VALID,207,VALID,0.583767,
2001-03-19, 01:08:00,VALID,917.571,VALID,0,VALID,98.4756,VALID,-0.0169808,VALID,17.938,VALID,213,VALID,0.718527,
2001-03-19, 01:09:00,VALID,917.546,VALID,0,VALID,98.4578,VALID,-0.0339617,VALID,17.9551,VALID,206,VALID,0.515008,
2001-03-19, 01:10:00,VALID,917.527,VALID,0,VALID,98.3573,VALID,-0.0339617,VALID,17.9124,VALID,201,VALID,0.456931,
2001-03-19, 01:11:01,VALID,917.511,VALID,0,VALID,98.2429,VALID,-0.0509425,VALID,17.8704,VALID,202,VALID,0.378125,
2001-03-19, 01:12:00,VALID,917.491,VALID,0,VALID,98.1196,VALID,-0.0509425,VALID,17.8155,VALID,194,VALID,0.680304,
2001-03-19, 01:13:00,VALID,917.489,VALID,0,VALID,98.2353,VALID,-0.0679233,VALID,17.7934,VALID,190,VALID,0.837788,
2001-03-19, 01:14:00,VALID,917.468,VALID,0,VALID,98.44,VALID,-0.0509425,VALID,17.8222,VALID,192,VALID,0.975962,
2001-03-19, 01:15:00,VALID,917.472,VALID,0,VALID,98.515,VALID,-0.0679233,VALID,17.8543,VALID,188,VALID,1.02384,
2001-03-19, 01:16:00,VALID,917.473,VALID,0,VALID,98.4947,VALID,-0.101885,VALID,17.8707,VALID,174,VALID,0.972356,
2001-03-19, 01:17:00,VALID,917.459,VALID,0,VALID,98.4387,VALID,-0.0849042,VALID,17.8607,VALID,167,VALID,0.960478,
2001-03-19, 01:18:01,VALID,917.456,VALID,0,VALID,98.1513,VALID,-0.0679233,VALID,17.8128,VALID,161,VALID,0.860742,
2001-03-19, 01:19:01,VALID,917.449,VALID,0,VALID,98.0191,VALID,-0.0339617,VALID,17.754,VALID,164,VALID,0.738932,
2001-03-19, 01:20:00,VALID,917.438,VALID,0,VALID,98.234,VALID,-0.0169808,VALID,17.7639,VALID,171,VALID,1.11003,
2001-03-19, 01:21:00,VALID,917.42,VALID,0,VALID,98.529,VALID,0.0169808,VALID,17.8119,VALID,171,VALID,1.00929,
2001-03-19, 01:22:00,VALID,917.409,VALID,0,VALID,98.379,VALID,0.0169808,VALID,17.8149,VALID,165,VALID,0.88199,
2001-03-19, 01:23:00,VALID,917.398,VALID,0,VALID,98.3497,VALID,0.0339617,VALID,17.763,VALID,169,VALID,0.868924,
2001-03-19, 01:24:01,VALID,917.375,VALID,0,VALID,98.6829,VALID,0.0509425,VALID,17.8082,VALID,173,VALID,0.706926,
2001-03-19, 01:25:00,VALID,917.363,VALID,0,VALID,98.7096,VALID,0.0509425,VALID,17.8594,VALID,173,VALID,0.657986,
2001-03-19, 01:26:01,VALID,917.367,VALID,0,VALID,98.543,VALID,0.0679233,VALID,17.8273,VALID,174,VALID,0.533306,
2001-03-19, 01:27:01,VALID,917.34,VALID,0,VALID,98.3751,VALID,0.0509425,VALID,17.7632,VALID,173,VALID,0.627956,
2001-03-19, 01:28:00,VALID,917.323,VALID,0,VALID,98.4209,VALID,0.0339617,VALID,17.7051,VALID,174,VALID,0.75686,
2001-03-19, 01:29:00,VALID,917.299,VALID,0,VALID,98.5048,VALID,0.0849042,VALID,17.6887,VALID,187,VALID,0.921094,
2001-03-19, 01:30:01,VALID,917.293,VALID,0,VALID,98.4705,VALID,0,VALID,17.6465,VALID,187,VALID,1.0993,
2001-03-19, 01:31:00,VALID,917.289,VALID,0,VALID,98.5544,VALID,0.0339617,VALID,17.6338,VALID,184,VALID,1.02682,
2001-03-19, 01:32:00,VALID,917.293,VALID,0,VALID,98.5837,VALID,0.0509425,VALID,17.6048,VALID,183,VALID,0.912109,
2001-03-19, 01:33:00,VALID,917.297,VALID,0,VALID,98.6307,VALID,0,VALID,17.5859,VALID,173,VALID,0.803454,
2001-03-19, 01:34:01,VALID,917.289,VALID,0,VALID,98.7579,VALID,0,VALID,17.576,VALID,176,VALID,0.788839,
2001-03-19, 01:35:00,VALID,917.271,VALID,0,VALID,98.8469,VALID,0.0509425,VALID,17.5947,VALID,175,VALID,0.792869,
2001-03-19, 01:36:00,VALID,917.241,VALID,0,VALID,98.8444,VALID,0.0509425,VALID,17.5919,VALID,179,VALID,0.979167,
2001-03-19, 01:37:01,VALID,917.209,VALID,0,VALID,98.9436,VALID,0.0169808,VALID,17.6276,VALID,184,VALID,1.16512,
2001-03-19, 01:38:00,VALID,917.159,VALID,0,VALID,98.9601,VALID,0.0679233,VALID,17.6338,VALID,187,VALID,1.11558,
2001-03-19, 01:39:00,VALID,917.13,VALID,0,VALID,99.0135,VALID,0.0169808,VALID,17.6507,VALID,187,VALID,1.01933,
2001-03-19, 01:40:00,VALID,917.092,VALID,0,VALID,99.0491,VALID,0.0339617,VALID,17.6763,VALID,186,VALID,0.97574,
2001-03-19, 01:41:00,VALID,917.074,VALID,0,VALID,99.1025,VALID,0.0169808,VALID,17.6924,VALID,190,VALID,1.13302,
2001-03-19, 01:42:00,VALID,917.065,VALID,0,VALID,99.1012,VALID,0.0169808,VALID,17.7148,VALID,187,VALID,1.04405,
2001-03-19, 01:43:00,VALID,917.066,VALID,0,VALID,99.0287,VALID,0.0509425,VALID,17.6887,VALID,178,VALID,0.715372,
2001-03-19, 01:44:01,VALID,917.064,VALID,0,VALID,98.9156,VALID,0.0339617,VALID,17.5983,VALID,182,VALID,0.484581,
2001-03-19, 01:45:01,VALID,917.065,VALID,0,VALID,98.9919,VALID,0.0679233,VALID,17.5725,VALID,185,VALID,0.45653,
2001-03-19, 01:46:01,VALID,917.058,VALID,0,VALID,98.9855,VALID,0.0169808,VALID,17.5665,VALID,185,VALID,0.200521,
2001-03-19, 01:47:01,VALID,917.059,VALID,0,VALID,98.9614,VALID,0.0509425,VALID,17.5312,VALID,185,VALID,0.373944,
2001-03-19, 01:48:01,VALID,917.04,VALID,0,VALID,98.9156,VALID,0,VALID,17.4828,VALID,185,VALID,0.101563,
2001-03-19, 01:49:01,VALID,917.01,VALID,0,VALID,98.8596,VALID,0.0339617,VALID,17.4046,VALID,185,VALID,0,
2001-03-19, 01:50:01,VALID,916.99,VALID,0,VALID,98.9003,VALID,0.0169808,VALID,17.3954,VALID,185,VALID,0,
2001-03-19, 01:51:00,VALID,916.958,VALID,0,VALID,99.0109,VALID,0,VALID,17.4087,VALID,185,VALID,0,
2001-03-19, 01:52:00,VALID,916.947,VALID,0,VALID,98.9919,VALID,0.0169808,VALID,17.415,VALID,185,VALID,0,
2001-03-19, 01:53:01,VALID,916.943,VALID,0,VALID,99.0326,VALID,0.0169808,VALID,17.4111,VALID,185,VALID,0,
2001-03-19, 01:54:01,VALID,916.924,VALID,0,VALID,99.1063,VALID,0,VALID,17.4436,VALID,185,VALID,0,
2001-03-19, 01:55:01,VALID,916.92,VALID,0,VALID,99.1941,VALID,0.0169808,VALID,17.5019,VALID,185,VALID,0.0666233,
2001-03-19, 01:56:01,VALID,916.915,VALID,0,VALID,99.0466,VALID,0,VALID,17.4438,VALID,184,VALID,0.0472862,
2001-03-19, 01:57:00,VALID,916.917,VALID,0,VALID,98.6702,VALID,0,VALID,17.2409,VALID,181,VALID,0,
2001-03-19, 01:58:01,VALID,916.923,VALID,0,VALID,98.5137,VALID,0.0169808,VALID,17.1249,VALID,181,VALID,0,
2001-03-19, 01:59:01,VALID,916.907,VALID,0,VALID,98.5633,VALID,0,VALID,17.0924,VALID,181,VALID,0,
2001-03-19, 02:00:01,VALID,916.924,VALID,0,VALID,98.6702,VALID,0,VALID,17.0696,VALID,181,VALID,0,
2001-03-19, 02:01:01,VALID,916.926,VALID,0,VALID,98.8901,VALID,0,VALID,17.1285,VALID,181,VALID,0,
2001-03-19, 02:02:01,VALID,916.947,VALID,0,VALID,99.0707,VALID,0,VALID,17.2054,VALID,181,VALID,0,
2001-03-19, 02:03:01,VALID,916.955,VALID,0,VALID,99.119,VALID,0,VALID,17.3054,VALID,181,VALID,0,
2001-03-19, 02:04:01,VALID,916.96,VALID,0,VALID,99.0504,VALID,0.0169808,VALID,17.3119,VALID,181,VALID,0.0180921,
2001-03-19, 02:05:01,VALID,916.941,VALID,0,VALID,98.852,VALID,0,VALID,17.2409,VALID,180,VALID,0.275841,
2001-03-19, 02:06:01,VALID,916.908,VALID,0,VALID,98.1882,VALID,0,VALID,16.957,VALID,178,VALID,0.315505,
2001-03-19, 02:07:01,VALID,916.88,VALID,0,VALID,98.2518,VALID,-0.0169808,VALID,16.8636,VALID,153,VALID,0.432091,
2001-03-19, 02:08:01,VALID,916.848,VALID,0,VALID,98.4069,VALID,-0.0509425,VALID,16.8313,VALID,126,VALID,0.454733,
2001-03-19, 02:09:01,VALID,916.833,VALID,0,VALID,98.4781,VALID,-0.0169808,VALID,16.8087,VALID,126,VALID,0.304688,
2001-03-19, 02:10:01,VALID,916.841,VALID,0,VALID,98.3751,VALID,-0.0339617,VALID,16.7541,VALID,126,VALID,0.277561,
2001-03-19, 02:11:01,VALID,916.835,VALID,0,VALID,98.5061,VALID,-0.0509425,VALID,16.7539,VALID,126,VALID,0.407552,
2001-03-19, 02:12:01,VALID,916.809,VALID,0,VALID,98.7426,VALID,-0.0509425,VALID,16.796,VALID,128,VALID,0.429054,
2001-03-19, 02:13:01,VALID,916.781,VALID,0,VALID,99.1368,VALID,-0.0339617,VALID,16.9471,VALID,134,VALID,0.660773,
2001-03-19, 02:14:01,VALID,916.747,VALID,0,VALID,99.3912,VALID,0,VALID,17.2194,VALID,143,VALID,0.769965,
2001-03-19, 02:15:00,VALID,916.714,VALID,0,VALID,99.4649,VALID,-0.0509425,VALID,17.4449,VALID,144,VALID,0.728885,
2001-03-19, 02:16:00,VALID,916.688,VALID,0,VALID,99.4217,VALID,-0.0509425,VALID,17.5644,VALID,152,VALID,0.590278,
2001-03-19, 02:17:00,VALID,916.661,VALID,0,VALID,99.3556,VALID,-0.0339617,VALID,17.581,VALID,163,VALID,0.536184,
2001-03-19, 02:18:00,VALID,916.657,VALID,0,VALID,99.2971,VALID,-0.0169808,VALID,17.5775,VALID,163,VALID,0.523649,
2001-03-19, 02:19:00,VALID,916.663,VALID,0,VALID,99.236,VALID,-0.0169808,VALID,17.545,VALID,163,VALID,0.431784,
2001-03-19, 02:20:00,VALID,916.671,VALID,0,VALID,99.1152,VALID,-0.0339617,VALID,17.4742,VALID,163,VALID,0.312305,
2001-03-19, 02:21:00,VALID,916.685,VALID,0,VALID,99.0148,VALID,-0.0849042,VALID,17.3745,VALID,163,VALID,0.0162418,
2001-03-19, 02:22:00,VALID,916.678,VALID,0,VALID,98.9512,VALID,-0.0509425,VALID,17.2936,VALID,163,VALID,0.00126689,
2001-03-19, 02:23:00,VALID,916.664,VALID,0,VALID,98.927,VALID,-0.0849042,VALID,17.2288,VALID,163,VALID,0.00195313,
2001-03-19, 02:24:00,VALID,916.655,VALID,0,VALID,98.9232,VALID,-0.0339617,VALID,17.203,VALID,164,VALID,0,
2001-03-19, 02:25:00,VALID,916.634,VALID,0,VALID,98.9143,VALID,-0.0679233,VALID,17.1472,VALID,169,VALID,0.144196,
2001-03-19, 02:26:00,VALID,916.622,VALID,0,VALID,98.8431,VALID,-0.0509425,VALID,17.113,VALID,166,VALID,0.749199,
2001-03-19, 02:27:00,VALID,916.604,VALID,0,VALID,99.1559,VALID,-0.0509425,VALID,17.1417,VALID,163,VALID,0.749783,
2001-03-19, 02:28:00,VALID,916.59,VALID,0,VALID,99.2907,VALID,-0.0339617,VALID,17.3257,VALID,159,VALID,0.457981,
2001-03-19, 02:29:00,VALID,916.589,VALID,0,VALID,99.1546,VALID,-0.101885,VALID,17.3289,VALID,159,VALID,0.435096,
2001-03-19, 02:30:00,VALID,916.598,VALID,0,VALID,99.2258,VALID,-0.0849042,VALID,17.3773,VALID,162,VALID,0.48602,
2001-03-19, 02:31:00,VALID,916.574,VALID,0,VALID,99.2538,VALID,-0.0509425,VALID,17.4779,VALID,162,VALID,0.533306,
2001-03-19, 02:32:00,VALID,916.551,VALID,0,VALID,99.2335,VALID,-0.0679233,VALID,17.5586,VALID,162,VALID,0.506546,
2001-03-19, 02:33:00,VALID,916.539,VALID,0,VALID,99.0402,VALID,-0.0339617,VALID,17.5777,VALID,164,VALID,0.486762,
2001-03-19, 02:34:00,VALID,916.521,VALID,0,VALID,98.7032,VALID,-0.0339617,VALID,17.4839,VALID,167,VALID,0.063978,
2001-03-19, 02:35:00,VALID,916.527,VALID,0,VALID,98.4336,VALID,-0.0169808,VALID,17.3993,VALID,178,VALID,0,
2001-03-19, 02:36:00,VALID,916.525,VALID,0,VALID,98.159,VALID,0,VALID,17.3713,VALID,180,VALID,0,
2001-03-19, 02:37:00,VALID,916.51,VALID,0,VALID,97.499,VALID,-0.0679233,VALID,17.2544,VALID,190,VALID,0.240184,
2001-03-19, 02:38:00,VALID,916.478,VALID,0,VALID,97.5511,VALID,-0.0339617,VALID,17.1774,VALID,201,VALID,0.304054,
2001-03-19, 02:39:00,VALID,916.441,VALID,0,VALID,97.8462,VALID,-0.0509425,VALID,17.1901,VALID,201,VALID,0.331209,
2001-03-19, 02:40:00,VALID,916.408,VALID,0,VALID,97.7559,VALID,-0.0679233,VALID,17.1703,VALID,201,VALID,0.126603,
2001-03-19, 02:41:00,VALID,916.396,VALID,0,VALID,97.6465,VALID,-0.0679233,VALID,17.1576,VALID,201,VALID,0,
2001-03-19, 02:42:00,VALID,916.386,VALID,0,VALID,97.5804,VALID,-0.0679233,VALID,17.1382,VALID,201,VALID,0,
2001-03-19, 02:43:00,VALID,916.401,VALID,0,VALID,97.5168,VALID,-0.0339617,VALID,17.1193,VALID,200,VALID,0,
2001-03-19, 02:44:00,VALID,916.41,VALID,0,VALID,97.4532,VALID,-0.0679233,VALID,17.0934,VALID,198,VALID,0.125211,
2001-03-19, 02:45:00,VALID,916.403,VALID,0,VALID,96.867,VALID,-0.0679233,VALID,16.9869,VALID,198,VALID,0.0523003,
2001-03-19, 02:46:00,VALID,916.391,VALID,0,VALID,97.0311,VALID,-0.0509425,VALID,16.9226,VALID,150,VALID,0.458116,
2001-03-19, 02:47:00,VALID,916.36,VALID,0,VALID,97.8322,VALID,-0.0679233,VALID,16.9934,VALID,130,VALID,0.400082,
2001-03-19, 02:48:00,VALID,916.347,VALID,0,VALID,97.9288,VALID,-0.0169808,VALID,17.0321,VALID,128,VALID,0.40625,
2001-03-19, 02:49:00,VALID,916.338,VALID,0,VALID,98.234,VALID,-0.0339617,VALID,17.1158,VALID,125,VALID,0.294271,
2001-03-19, 02:50:00,VALID,916.347,VALID,0,VALID,98.3154,VALID,-0.0339617,VALID,17.1866,VALID,118,VALID,0.210938,
2001-03-19, 02:51:00,VALID,916.361,VALID,0,VALID,98.1157,VALID,-0.0509425,VALID,17.2062,VALID,118,VALID,0,
2001-03-19, 02:52:00,VALID,916.374,VALID,0,VALID,97.7902,VALID,-0.0339617,VALID,17.2097,VALID,118,VALID,0.230369,
2001-03-19, 02:53:00,VALID,916.365,VALID,0,VALID,97.8055,VALID,-0.0509425,VALID,17.229,VALID,118,VALID,0.209766,
2001-03-19, 02:54:00,VALID,916.357,VALID,0,VALID,98.0013,VALID,0,VALID,17.3059,VALID,118,VALID,0.0742188,
2001-03-19, 02:55:00,VALID,916.353,VALID,0,VALID,97.7088,VALID,-0.0339617,VALID,17.3418,VALID,124,VALID,0.381168,
2001-03-19, 02:56:00,VALID,916.359,VALID,0,VALID,97.5511,VALID,-0.0679233,VALID,17.3255,VALID,131,VALID,0.328325,
2001-03-19, 02:57:00,VALID,916.361,VALID,0,VALID,97.7533,VALID,-0.0339617,VALID,17.3745,VALID,132,VALID,0.235978,
2001-03-19, 02:58:00,VALID,916.364,VALID,0,VALID,98.0013,VALID,-0.0169808,VALID,17.4387,VALID,131,VALID,0.365585,
2001-03-19, 02:59:00,VALID,916.37,VALID,0,VALID,98.1717,VALID,-0.0339617,VALID,17.5484,VALID,133,VALID,0.567785,
2001-03-19, 03:00:00,VALID,916.379,VALID,0,VALID,97.4138,VALID,0,VALID,17.5226,VALID,139,VALID,0.555859,
2001-03-19, 03:01:00,VALID,916.374,VALID,0,VALID,96.3838,VALID,-0.0339617,VALID,17.4165,VALID,121,VALID,0.70638,
2001-03-19, 03:02:00,VALID,916.369,VALID,0,VALID,97.2956,VALID,0,VALID,17.4421,VALID,99,VALID,0.787977,
2001-03-19, 03:03:00,VALID,916.366,VALID,0,VALID,97.3083,VALID,0,VALID,17.4486,VALID,84,VALID,0.860008,
2001-03-19, 03:04:00,VALID,916.368,VALID,0,VALID,97.8614,VALID,-0.0509425,VALID,17.5452,VALID,82,VALID,0.809416,
2001-03-19, 03:05:00,VALID,916.358,VALID,0,VALID,98.0153,VALID,-0.0339617,VALID,17.6227,VALID,89,VALID,0.913628,
2001-03-19, 03:06:00,VALID,916.334,VALID,0,VALID,98.0725,VALID,-0.0509425,VALID,17.7103,VALID,89,VALID,0.881757,
2001-03-19, 03:07:00,VALID,916.323,VALID,0,VALID,98.07,VALID,-0.101885,VALID,17.8014,VALID,88,VALID,0.740234,
2001-03-19, 03:08:00,VALID,916.291,VALID,0,VALID,97.8398,VALID,-0.101885,VALID,17.8367,VALID,89,VALID,0.763569,
2001-03-19, 03:09:00,VALID,916.264,VALID,0,VALID,97.6033,VALID,-0.0849042,VALID,17.8429,VALID,98,VALID,0.893581,
2001-03-19, 03:10:00,VALID,916.245,VALID,0,VALID,97.6605,VALID,-0.101885,VALID,17.8787,VALID,91,VALID,0.766197,
2001-03-19, 03:11:00,VALID,916.253,VALID,0,VALID,97.663,VALID,-0.101885,VALID,17.914,VALID,81,VALID,0.865625,
2001-03-19, 03:12:00,VALID,916.273,VALID,0,VALID,97.7724,VALID,-0.101885,VALID,17.9721,VALID,82,VALID,0.86472,
2001-03-19, 03:13:00,VALID,916.278,VALID,0,VALID,97.761,VALID,-0.0849042,VALID,18.0399,VALID,87,VALID,0.944257,
2001-03-19, 03:14:00,VALID,916.276,VALID,0,VALID,97.2396,VALID,-0.0849042,VALID,18.0598,VALID,84,VALID,0.466602,
2001-03-19, 03:15:00,VALID,916.251,VALID,0,VALID,96.9433,VALID,-0.101885,VALID,18.0275,VALID,61,VALID,0.445929,
2001-03-19, 03:16:00,VALID,916.216,VALID,0,VALID,96.7933,VALID,-0.101885,VALID,17.9984,VALID,71,VALID,0.314732,
2001-03-19, 03:17:00,VALID,916.204,VALID,0,VALID,96.9179,VALID,-0.101885,VALID,18.0012,VALID,81,VALID,0.54347,
2001-03-19, 03:18:00,VALID,916.21,VALID,0,VALID,97.4876,VALID,-0.0849042,VALID,18.0752,VALID,75,VALID,0.710503,
2001-03-19, 03:19:00,VALID,916.211,VALID,0,VALID,97.5918,VALID,-0.101885,VALID,18.1756,VALID,76,VALID,0.650127,
2001-03-19, 03:20:00,VALID,916.204,VALID,0,VALID,97.0641,VALID,-0.0849042,VALID,18.2076,VALID,79,VALID,0.921675,
2001-03-19, 03:21:00,VALID,916.18,VALID,0,VALID,96.9522,VALID,-0.0509425,VALID,18.2685,VALID,81,VALID,1.21238,
2001-03-19, 03:22:00,VALID,916.16,VALID,0,VALID,96.675,VALID,0,VALID,18.3034,VALID,81,VALID,1.20415,
2001-03-19, 03:23:00,VALID,916.159,VALID,0,VALID,96.6292,VALID,0.0169808,VALID,18.3449,VALID,74,VALID,1.07179,
2001-03-19, 03:24:00,VALID,916.166,VALID,0,VALID,96.6318,VALID,0.0169808,VALID,18.3966,VALID,82,VALID,1.21528,
2001-03-19, 03:25:00,VALID,916.18,VALID,0,VALID,96.3762,VALID,0.0339617,VALID,18.4355,VALID,79,VALID,0.86212,
2001-03-19, 03:26:00,VALID,916.194,VALID,0,VALID,96.0049,VALID,0,VALID,18.4614,VALID,97,VALID,0.640625,
2001-03-19, 03:27:00,VALID,916.214,VALID,0,VALID,94.9863,VALID,0,VALID,18.3615,VALID,85,VALID,0.073117,
2001-03-19, 03:28:00,VALID,916.198,VALID,0,VALID,95.8154,VALID,0,VALID,18.3518,VALID,57,VALID,0.384215,
2001-03-19, 03:29:00,VALID,916.193,VALID,0,VALID,95.7696,VALID,0.0169808,VALID,18.3677,VALID,67,VALID,0.483953,
2001-03-19, 03:30:00,VALID,916.18,VALID,0,VALID,93.2391,VALID,0.0169808,VALID,18.2058,VALID,77,VALID,0.258018,
2001-03-19, 03:31:00,VALID,916.175,VALID,0,VALID,94.8566,VALID,0,VALID,18.1384,VALID,81,VALID,0.630609,
2001-03-19, 03:32:00,VALID,916.156,VALID,0,VALID,95.8408,VALID,0,VALID,18.1707,VALID,82,VALID,0.555088,